• In Portugal
  • List of Countries
  • For 7 days
  • Water Temperature
  • Satellite Maps
  • Weather Map
  • Weather Widgets
  • user-avatar
    Login

    Hourly Weather San Juan

    Today, 20 February, Tuesday

    Time Temperature Precipitation Wind Pressure Humidity
    00:00 +28°C° 0.5 mm 2 mps 702 mmHg 46%
    01:00 +27°C° 0.5 mm 1 mps 702 mmHg 47%
    02:00 +27°C° 0.2 mm 2 mps 702 mmHg 49%
    03:00 +26°C° 0.2 mm 2 mps 702 mmHg 51%
    04:00 +26°C° 0.2 mm 2 mps 703 mmHg 53%
    05:00 +26°C° 0.2 mm 2 mps 703 mmHg 53%
    06:00 +26°C° 0.2 mm 3 mps 704 mmHg 54%
    07:00 +26°C° 0.2 mm 4 mps 704 mmHg 54%
    08:00 +27°C° 0.2 mm 4 mps 704 mmHg 50%
    09:00 +28°C° 0.2 mm 4 mps 705 mmHg 46%
    10:00 +29°C° 0.2 mm 5 mps 705 mmHg 42%
    11:00 +30°C° 0.1 mm 5 mps 705 mmHg 38%
    12:00 +32°C° 0.1 mm 5 mps 704 mmHg 35%
    13:00 +33°C° 0.1 mm 5 mps 704 mmHg 31%
    14:00 +33°C° 0.1 mm 5 mps 704 mmHg 30%
    15:00 +33°C° 0.1 mm 5 mps 704 mmHg 30%
    16:00 +33°C° 0.1 mm 5 mps 704 mmHg 29%
    17:00 +32°C° 0.1 mm 5 mps 705 mmHg 31%
    18:00 +30°C° 0.1 mm 5 mps 705 mmHg 32%
    19:00 +29°C° 0.1 mm 4 mps 706 mmHg 33%
    20:00 +29°C° 0 mm 4 mps 706 mmHg 34%
    21:00 +28°C° 0 mm 4 mps 707 mmHg 34%
    22:00 +28°C° 0 mm 3 mps 708 mmHg 34%
    23:00 +27°C° 0 mm 3 mps 708 mmHg 35%

    Tomorrow, 21 February, Wednesday

    Time Temperature Precipitation Wind Pressure Humidity
    00:00 +27°C° 0 mm 2 mps 708 mmHg 36%
    01:00 +26°C° 0 mm 2 mps 708 mmHg 37%
    02:00 +26°C° 0 mm 1 mps 708 mmHg 38%
    03:00 +26°C° 0 mm 1 mps 708 mmHg 39%
    04:00 +25°C° 0 mm 1 mps 708 mmHg 40%
    05:00 +26°C° 0 mm 1 mps 708 mmHg 40%
    06:00 +26°C° 0 mm 2 mps 708 mmHg 40%
    07:00 +27°C° 0 mm 2 mps 709 mmHg 39%
    08:00 +28°C° 0 mm 2 mps 709 mmHg 37%
    09:00 +29°C° 0 mm 3 mps 708 mmHg 35%
    10:00 +31°C° 0 mm 3 mps 708 mmHg 33%
    11:00 +33°C° 0 mm 4 mps 707 mmHg 31%
    12:00 +34°C° 0 mm 4 mps 707 mmHg 29%
    13:00 +35°C° 0 mm 4 mps 706 mmHg 28%
    14:00 +35°C° 0 mm 4 mps 705 mmHg 28%
    15:00 +35°C° 0 mm 4 mps 705 mmHg 27%
    16:00 +36°C° 0 mm 4 mps 704 mmHg 27%
    17:00 +35°C° 0.1 mm 4 mps 704 mmHg 30%
    18:00 +34°C° 0.1 mm 4 mps 705 mmHg 33%
    19:00 +33°C° 0.1 mm 4 mps 705 mmHg 35%
    20:00 +32°C° 0.1 mm 4 mps 706 mmHg 37%
    21:00 +30°C° 0.1 mm 4 mps 706 mmHg 40%
    22:00 +30°C° 0.1 mm 4 mps 706 mmHg 42%
    23:00 +29°C° 0.1 mm 3 mps 706 mmHg 42%

    Day after tomorrow, 22 February, Thursday

    Time Temperature Precipitation Wind Pressure Humidity
    00:00 +29°C° 0.1 mm 3 mps 706 mmHg 41%
    01:00 +28°C° 0.1 mm 3 mps 706 mmHg 41%
    02:00 +28°C° 0 mm 3 mps 705 mmHg 41%
    03:00 +28°C° 0 mm 2 mps 705 mmHg 41%
    04:00 +27°C° 0 mm 2 mps 705 mmHg 40%
    05:00 +28°C° 0 mm 2 mps 705 mmHg 39%
    06:00 +28°C° 0 mm 2 mps 706 mmHg 37%
    07:00 +29°C° 0 mm 2 mps 706 mmHg 36%
    08:00 +30°C° 0.1 mm 2 mps 706 mmHg 34%
    09:00 +31°C° 0.1 mm 2 mps 706 mmHg 33%
    10:00 +32°C° 0.1 mm 1 mps 706 mmHg 32%
    11:00 +34°C° 0.2 mm 2 mps 705 mmHg 30%
    12:00 +34°C° 0.2 mm 2 mps 705 mmHg 29%
    13:00 +35°C° 0.2 mm 2 mps 704 mmHg 28%
    14:00 +35°C° 0.2 mm 2 mps 703 mmHg 27%
    15:00 +36°C° 0.2 mm 2 mps 703 mmHg 27%
    16:00 +36°C° 0.2 mm 3 mps 702 mmHg 27%
    17:00 +35°C° 0.5 mm 3 mps 703 mmHg 29%
    18:00 +34°C° 0.5 mm 3 mps 703 mmHg 31%
    19:00 +33°C° 0.5 mm 3 mps 703 mmHg 33%
    20:00 +33°C° 0.4 mm 4 mps 703 mmHg 36%
    21:00 +32°C° 0.4 mm 4 mps 704 mmHg 39%
    22:00 +30°C° 0.4 mm 4 mps 704 mmHg 42%
    23:00 +30°C° 0.4 mm 4 mps 703 mmHg 45%

    23 February, Friday

    Time Temperature Precipitation Wind Pressure Humidity
    00:00 +29°C° 0.4 mm 3 mps 703 mmHg 48%
    01:00 +28°C° 0.4 mm 2 mps 703 mmHg 51%
    02:00 +28°C° 0.2 mm 2 mps 703 mmHg 52%
    03:00 +28°C° 0.2 mm 2 mps 703 mmHg 53%
    04:00 +27°C° 0.2 mm 2 mps 704 mmHg 53%
    05:00 +25°C° 0.4 mm 5 mps 704 mmHg 59%
    06:00 +23°C° 0.4 mm 7 mps 705 mmHg 64%
    07:00 +21°C° 0.4 mm 10 mps 706 mmHg 70%
    08:00 +21°C° 0 mm 10 mps 706 mmHg 67%
    09:00 +21°C° 0 mm 9 mps 707 mmHg 65%
    10:00 +21°C° 0 mm 8 mps 707 mmHg 63%
    11:00 +22°C° 0 mm 8 mps 707 mmHg 60%
    12:00 +23°C° 0 mm 7 mps 707 mmHg 57%
    13:00 +24°C° 0 mm 7 mps 706 mmHg 54%
    14:00 +24°C° 0 mm 7 mps 706 mmHg 54%
    15:00 +24°C° 0 mm 7 mps 706 mmHg 54%
    16:00 +24°C° 0 mm 7 mps 706 mmHg 54%
    17:00 +23°C° 0 mm 6 mps 707 mmHg 56%
    18:00 +22°C° 0 mm 6 mps 707 mmHg 59%
    19:00 +22°C° 0 mm 5 mps 708 mmHg 62%
    20:00 +21°C° 0 mm 5 mps 708 mmHg 63%
    21:00 +21°C° 0 mm 4 mps 709 mmHg 65%
    22:00 +21°C° 0 mm 3 mps 709 mmHg 66%
    23:00 +20°C° 0 mm 3 mps 709 mmHg 67%

    24 February, Saturday

    Time Temperature Precipitation Wind Pressure Humidity
    00:00 +20°C° 0 mm 3 mps 708 mmHg 68%
    01:00 +20°C° 0 mm 2 mps 708 mmHg 69%
    02:00 +20°C° 0 mm 2 mps 708 mmHg 69%
    03:00 +19°C° 0 mm 2 mps 708 mmHg 70%
    04:00 +20°C° 0 mm 1 mps 708 mmHg 71%
    05:00 +21°C° 0 mm 1 mps 708 mmHg 68%
    06:00 +21°C° 0 mm 1 mps 708 mmHg 66%
    07:00 +20°C° 0 mm 2 mps 709 mmHg 64%
    08:00 +23°C° 0 mm 2 mps 709 mmHg 58%
    09:00 +24°C° 0 mm 2 mps 708 mmHg 53%
    10:00 +25°C° 0 mm 2 mps 708 mmHg 47%
    11:00 +26°C° 0 mm 2 mps 707 mmHg 44%
    12:00 +28°C° 0 mm 2 mps 707 mmHg 40%
    13:00 +29°C° 0 mm 2 mps 706 mmHg 37%
    14:00 +29°C° 0 mm 2 mps 706 mmHg 36%
    15:00 +29°C° 0 mm 3 mps 706 mmHg 35%
    16:00 +30°C° 0 mm 3 mps 705 mmHg 34%
    17:00 +29°C° 0 mm 2 mps 706 mmHg 36%
    18:00 +28°C° 0 mm 2 mps 706 mmHg 37%
    19:00 +28°C° 0 mm 2 mps 707 mmHg 39%
    20:00 +27°C° 0 mm 2 mps 707 mmHg 40%
    21:00 +26°C° 0 mm 2 mps 708 mmHg 42%
    22:00 +26°C° 0 mm 2 mps 708 mmHg 43%
    23:00 +25°C° 0 mm 2 mps 708 mmHg 44%

    25 February, Sunday

    Time Temperature Precipitation Wind Pressure Humidity
    00:00 +25°C° 0 mm 1 mps 708 mmHg 46%
    01:00 +25°C° 0 mm 1 mps 707 mmHg 47%
    02:00 +24°C° 0 mm 1 mps 707 mmHg 47%
    03:00 +24°C° 0 mm 1 mps 707 mmHg 48%
    04:00 +24°C° 0 mm 1 mps 707 mmHg 48%
    05:00 +24°C° 0 mm 1 mps 707 mmHg 46%
    06:00 +25°C° 0 mm 1 mps 707 mmHg 44%
    07:00 +26°C° 0 mm 1 mps 708 mmHg 42%
    08:00 +27°C° 0 mm 1 mps 708 mmHg 39%
    09:00 +28°C° 0 mm 1 mps 708 mmHg 36%
    10:00 +29°C° 0 mm 1 mps 707 mmHg 33%
    11:00 +30°C° 0 mm 1 mps 707 mmHg 31%
    12:00 +31°C° 0 mm 2 mps 706 mmHg 29%
    13:00 +32°C° 0 mm 2 mps 706 mmHg 27%
    14:00 +32°C° 0 mm 2 mps 705 mmHg 26%
    15:00 +32°C° 0 mm 2 mps 705 mmHg 26%
    16:00 +34°C° 0 mm 2 mps 705 mmHg 25%
    17:00 +32°C° 0.1 mm 2 mps 705 mmHg 26%
    18:00 +31°C° 0.1 mm 2 mps 705 mmHg 27%
    19:00 +30°C° 0.1 mm 2 mps 706 mmHg 29%
    20:00 +30°C° 0.2 mm 2 mps 706 mmHg 30%
    21:00 +29°C° 0.2 mm 2 mps 706 mmHg 31%
    22:00 +29°C° 0.2 mm 2 mps 706 mmHg 32%
    23:00 +29°C° 0.2 mm 2 mps 706 mmHg 34%
    Show more